Wind_Speed
27 29 35 35 31 32 33 27 26 27 31 36 41 40 36 34 29 27 24 20 15 18 15 16 14 14 10 2 20 23 19 18 13 11 12 14 17 18 17 13 12 12 10 16
30 31 33 35 36 35 34 31 28 27 30 33 35 41 42 38 32 28 26 20 15 14 12 12 15 9 7 4 10 20 19 18 15 13 11 18 19 16 12 12 11 10 16 26
31 34 33 33 35 39 39 35 32 31 30 29 30 30 35 39 37 32 29 25 19 16 16 10 14 9 8 6 3 16 18 20 17 13 18 18 16 15 10 11 12 17 26 24
29 31 33 34 36 37 40 39 38 36 30 26 27 23 28 35 36 35 31 28 25 19 12 9 12 15 6 5 3 12 18 21 19 17 21 17 16 13 11 13 19 27 25 25
24 28 32 35 37 37 35 38 40 39 37 35 32 31 32 29 32 32 33 30 29 18 10 11 6 12 8 4 2 7 18 23 20 24 22 17 15 14 12 26 28 31 29 23
24 25 28 31 33 34 34 37 39 42 42 42 40 35 31 28 29 34 37 34 32 22 14 16 4 6 10 5 3 4 21 22 25 25 18 14 10 10 23 31 36 32 28 21
22 23 24 28 31 33 34 35 37 42 45 46 43 40 34 31 29 30 36 37 35 25 16 15 9 2 6 3 4 3 16 25 26 27 20 13 13 19 22 28 36 31 28 24
20 20 21 24 28 30 31 33 36 39 46 45 43 42 41 36 32 30 30 36 35 28 25 21 14 6 5 4 2 3 9 25 29 27 21 20 21 23 24 28 33 27 22 20
20 20 20 22 25 27 29 32 34 36 41 43 44 44 42 40 36 34 30 30 34 32 28 25 17 11 8 6 3 2 6 21 30 29 25 25 23 27 27 28 31 28 23 19
21 22 20 22 22 25 27 30 33 34 36 39 39 44 43 42 40 39 36 33 34 35 30 28 23 17 11 10 2 2 6 10 27 33 30 28 27 30 30 28 26 28 27 21
22 19 20 21 21 24 25 28 30 32 31 34 39 39 43 45 43 42 39 38 35 41 37 32 31 24 18 16 10 1 4 8 15 30 32 31 31 31 32 31 28 23 26 24
23 18 19 21 21 22 25 27 28 29 31 33 37 36 39 43 44 44 42 40 40 36 42 38 36 32 28 20 16 12 3 9 11 16 34 32 35 33 31 30 29 30 28 26
24 18 18 21 21 23 22 24 26 28 31 32 35 34 37 39 42 44 45 44 43 42 41 45 41 38 32 30 22 19 10 8 13 16 18 30 35 35 34 31 28 29 27 25
26 21 19 23 21 17 20 21 22 24 26 29 32 32 34 36 39 41 44 46 47 45 44 44 46 42 38 36 29 24 19 14 15 15 21 25 27 32 36 38 36 33 31 28
28 25 22 21 23 25 22 23 23 25 26 28 27 30 29 33 35 41 43 45 47 50 47 46 45 47 44 41 36 30 26 22 18 19 19 23 26 28 32 34 34 34 34 33
30 30 26 25 25 30 28 26 23 22 23 25 28 29 27 32 31 34 39 45 48 49 52 51 49 47 49 44 40 37 33 29 26 23 20 17 22 24 26 26 28 29 30 31
34 33 31 29 28 28 32 33 30 27 26 26 28 27 32 30 31 32 34 37 44 49 51 54 53 52 50 50 48 45 41 37 34 29 27 24 23 24 21 22 26 30 30 30
37 36 36 31 28 29 32 33 36 33 28 28 32 32 33 33 34 35 34 36 38 42 51 53 55 55 55 55 53 50 48 43 39 37 35 31 29 27 24 22 22 22 26 27
38 39 37 36 31 33 28 32 33 33 29 29 31 31 32 33 34 35 38 40 39 40 44 51 55 57 57 58 56 56 55 51 46 47 42 37 35 32 29 27 25 23 23 26
43 43 39 39 34 35 34 26 25 30 32 27 29 27 27 29 29 28 41 43 43 42 42 42 49 57 59 60 61 59 58 53 50 52 48 42 40 39 36 33 30 29 30 30
45 42 40 38 38 35 36 32 27 32 24 32 30 31 32 28 31 31 36 35 37 39 44 44 44 46 55 60 62 63 62 60 56 57 56 51 46 45 43 40 38 36 37 36
45 43 39 40 38 39 38 35 34 30 32 33 35 35 33 30 28 32 35 30 32 33 35 41 45 45 46 54 61 65 66 63 60 58 62 60 55 50 47 45 44 43 42 42
45 44 40 42 41 42 38 39 34 33 33 34 35 34 34 33 31 31 31 31 30 30 33 36 41 46 47 47 53 61 67 68 68 66 64 67 64 58 55 52 50 48 49 48
47 51 45 42 42 42 42 39 38 36 34 33 33 33 33 32 31 32 32 29 26 25 26 28 31 38 44 49 49 54 62 69 72 72 68 71 70 68 64 60 57 56 52 50
53 50 51 48 44 41 41 41 37 35 37 34 35 34 32 31 31 30 28 27 24 23 23 19 19 25 35 44 50 52 56 62 71 74 74 74 73 75 72 69 66 64 62 60
53 53 53 53 52 48 42 40 42 39 36 36 35 32 30 27 26 26 28 27 25 25 25 26 24 24 24 31 40 49 55 58 65 72 77 80 78 79 79 76 75 73 70 68
Wind_Direction
252 245 241 242 235 230 233 231 230 230 228 228 225 230 233 240 256 265 272 281 281 316 337 355 7 9 29 144 200 198 198 201 201 207 193 187 183 186 184 194 198 192 193 172
251 248 245 243 240 238 234 231 226 226 228 229 231 233 235 239 244 251 261 269 275 299 319 351 357 6 7 359 185 192 189 194 193 193 198 183 176 180 194 195 187 208 175 166
251 249 248 245 241 236 234 231 229 225 228 230 231 236 239 238 239 241 250 260 263 286 313 335 353 357 355 3 185 177 179 181 182 184 182 177 183 178 174 190 205 170 164 164
258 251 246 244 242 240 238 233 228 228 225 225 235 208 259 235 232 235 240 248 257 274 293 307 341 354 341 353 11 171 183 175 176 182 180 182 185 187 202 184 167 158 155 155
275 257 245 241 241 241 238 236 233 229 226 224 225 221 232 236 229 222 231 239 249 257 268 291 302 342 337 336 53 187 182 170 166 167 172 186 190 214 211 171 159 155 153 145
284 267 248 241 241 240 238 234 231 229 228 227 228 226 224 231 231 222 225 231 243 249 245 237 276 323 353 327 17 181 185 184 171 163 166 184 200 201 175 170 160 156 163 151
293 276 254 239 237 236 234 233 230 227 228 229 228 227 226 227 229 232 229 231 237 242 238 236 226 254 337 298 356 170 185 188 178 166 165 186 176 167 171 176 167 170 166 154
287 285 262 242 236 236 233 232 230 228 229 230 231 230 227 228 227 234 233 226 229 222 229 232 224 219 262 5 252 102 182 187 190 184 182 189 176 173 174 177 180 175 178 180
279 280 266 248 240 237 233 231 231 228 228 230 229 231 231 230 227 230 232 224 215 212 220 225 218 219 234 253 358 201 162 193 195 195 185 186 185 176 181 186 187 192 191 190
275 280 266 252 246 240 235 231 231 231 229 230 230 231 231 230 228 226 228 227 218 211 216 219 222 214 230 249 248 249 191 186 196 196 193 192 192 190 186 191 199 207 213 219
269 281 267 250 245 243 238 233 230 230 228 228 229 229 227 229 228 227 226 228 227 215 213 222 225 222 225 244 252 277 230 195 199 201 196 199 199 199 199 195 198 208 216 222
264 274 258 252 244 240 238 236 231 227 225 226 229 226 227 226 227 227 226 226 228 229 215 213 224 225 227 235 244 256 258 214 200 202 207 201 203 200 202 206 209 212 219 230
260 263 259 245 248 236 229 231 227 224 224 223 227 224 227 228 228 227 226 227 227 227 224 219 218 225 223 232 242 247 246 230 211 202 202 214 212 213 215 217 222 230 230 227
256 254 256 246 248 233 227 227 226 223 224 225 226 223 225 227 228 229 228 227 226 227 226 223 221 223 223 230 237 235 242 234 236 218 207 205 209 215 219 225 230 229 232 230
249 252 246 248 237 234 229 230 234 233 232 231 228 228 225 227 226 227 229 230 229 226 227 226 224 222 222 227 233 239 240 242 241 240 218 207 208 213 219 221 226 231 229 228
253 246 240 241 237 236 234 230 229 228 229 233 231 232 229 233 229 230 228 230 231 229 227 227 226 224 222 221 230 235 235 235 244 240 229 207 203 208 215 219 223 224 221 221
246 249 245 234 237 243 237 235 237 240 239 236 236 233 235 232 234 231 232 232 231 231 231 228 228 227 225 229 230 234 236 234 239 236 228 222 211 205 208 208 209 210 210 208
242 242 239 240 233 238 240 234 237 240 243 243 243 239 241 237 234 238 235 235 236 234 232 231 230 229 228 228 229 230 232 237 239 233 231 223 220 213 208 205 203 201 203 202
241 239 237 235 234 237 243 235 234 238 240 242 244 243 241 241 239 238 240 239 235 239 237 231 232 231 229 229 230 231 234 236 233 226 228 226 225 218 213 217 218 208 208 205
241 239 234 235 231 236 237 238 232 229 234 236 241 240 242 241 237 238 236 239 240 240 243 241 234 233 232 230 230 231 233 232 232 224 227 226 228 225 220 219 222 219 218 215
240 239 235 231 232 237 237 233 229 229 233 236 241 246 252 251 244 241 244 238 241 240 239 242 242 237 234 232 230 230 232 233 230 224 225 226 226 229 225 227 225 222 222 223
239 243 238 233 234 234 235 233 230 232 235 242 244 247 252 251 248 241 241 242 242 241 241 239 241 243 240 234 232 230 231 231 231 226 225 226 226 227 228 230 233 228 226 228
238 240 243 237 235 235 234 232 230 232 235 242 246 247 247 250 244 239 245 248 246 243 242 241 238 239 239 240 236 231 231 230 229 231 228 225 227 226 227 229 231 229 227 229
235 238 238 238 238 233 233 233 229 232 240 244 243 242 247 247 243 240 243 242 240 240 245 247 243 241 241 239 239 237 232 231 231 230 231 228 229 229 227 226 228 230 227 229
232 234 233 233 236 234 232 229 229 232 236 237 240 244 247 242 242 241 236 227 234 246 249 254 258 250 241 240 239 238 237 234 231 232 230 230 231 230 230 229 228 229 231 231
230 234 235 231 236 237 231 230 228 233 235 234 236 241 240 237 234 235 232 236 245 252 262 260 263 270 264 251 245 240 239 237 235 233 233 232 231 231 233 231 232 233 231 233
Height
10890 10893 10896 10898 10905 10910 10912 10915 10918 10922 10925 10929 10933 10936 10939 10942 10944 10945 10947 10948 10950 10948 10944 10943 10941 10938 10934 10931 10931 10933 10936 10939 10941 10944 10946 10946 10947 10949 10952 10954 10956 10958 10960 10960
10882 10884 10887 10891 10897 10900 10904 10908 10913 10917 10918 10921 10925 10928 10933 10936 10940 10942 10943 10945 10947 10946 10946 10944 10942 10938 10936 10932 10930 10931 10934 10936 10939 10943 10944 10946 10947 10949 10951 10954 10957 10958 10959 10963
10874 10876 10879 10884 10886 10891 10895 10901 10907 10910 10912 10917 10921 10925 10927 10930 10933 10937 10939 10941 10944 10946 10945 10943 10941 10939 10936 10933 10930 10929 10932 10935 10939 10942 10944 10946 10949 10950 10952 10954 10955 10957 10962 10965
10866 10868 10871 10874 10877 10880 10885 10893 10898 10902 10909 10910 10914 10924 10916 10922 10927 10931 10935 10937 10940 10944 10943 10944 10940 10939 10936 10934 10930 10930 10932 10935 10938 10941 10944 10947 10949 10952 10953 10954 10956 10960 10964 10968
10859 10860 10862 10864 10867 10872 10880 10883 10890 10896 10900 10903 10904 10912 10915 10918 10922 10926 10929 10932 10935 10940 10941 10943 10941 10938 10937 10934 10931 10931 10933 10935 10937 10940 10943 10947 10949 10950 10951 10954 10958 10962 10966 10969
10850 10851 10853 10857 10860 10865 10871 10875 10880 10885 10890 10894 10898 10903 10908 10913 10915 10920 10923 10927 10930 10936 10939 10939 10940 10939 10937 10935 10933 10932 10933 10937 10937 10940 10946 10948 10949 10949 10951 10955 10959 10963 10966 10970
10844 10844 10845 10849 10852 10856 10861 10866 10871 10875 10879 10883 10890 10896 10904 10906 10910 10913 10917 10922 10925 10931 10935 10936 10937 10937 10936 10935 10934 10932 10932 10936 10939 10942 10946 10949 10949 10951 10955 10958 10961 10964 10967 10971
10840 10840 10840 10842 10845 10850 10854 10858 10862 10866 10869 10878 10882 10888 10894 10899 10904 10906 10910 10915 10920 10926 10930 10932 10934 10935 10936 10934 10933 10933 10933 10935 10939 10942 10945 10949 10951 10953 10956 10960 10964 10966 10969 10972
10836 10836 10836 10837 10840 10844 10848 10851 10855 10859 10863 10868 10875 10879 10885 10892 10897 10900 10904 10909 10914 10919 10924 10928 10930 10931 10933 10934 10933 10933 10933 10934 10938 10941 10945 10949 10952 10953 10956 10960 10964 10967 10970 10973
10831 10831 10832 10833 10835 10838 10842 10845 10849 10852 10858 10861 10868 10870 10878 10882 10888 10893 10898 10902 10906 10912 10917 10922 10926 10927 10930 10932 10932 10932 10933 10933 10936 10940 10943 10946 10951 10953 10955 10959 10963 10967 10969 10972
10825 10826 10826 10827 10829 10832 10835 10839 10843 10847 10852 10855 10856 10862 10867 10872 10879 10885 10890 10894 10899 10904 10909 10915 10919 10923 10925 10927 10929 10931 10932 10934 10934 10938 10942 10944 10948 10953 10955 10957 10962 10965 10968 10970
10820 10821 10820 10822 10824 10826 10829 10832 10836 10839 10843 10847 10848 10855 10859 10863 10869 10876 10882 10887 10892 10896 10902 10907 10912 10916 10921 10923 10925 10928 10930 10932 10934 10935 10939 10942 10945 10950 10954 10958 10960 10963 10965 10968
10815 10816 10816 10817 10818 10820 10823 10826 10829 10832 10836 10839 10842 10848 10851 10855 10860 10867 10873 10878 10883 10889 10894 10900 10905 10909 10914 10918 10921 10923 10926 10928 10931 10933 10935 10939 10943 10947 10951 10955 10957 10960 10963 10965
10809 10811 10811 10813 10815 10817 10818 10821 10823 10827 10830 10833 10836 10841 10845 10848 10852 10857 10862 10868 10874 10879 10885 10891 10897 10902 10907 10912 10916 10919 10922 10924 10927 10930 10932 10935 10940 10944 10947 10950 10953 10956 10959 10961
10804 10805 10806 10808 10810 10811 10813 10815 10818 10821 10825 10827 10831 10833 10837 10840 10844 10848 10852 10857 10863 10870 10875 10881 10887 10893 10899 10904 10910 10913 10918 10920 10922 10925 10928 10932 10935 10939 10941 10945 10947 10950 10953 10954
10795 10799 10800 10802 10803 10805 10808 10810 10813 10816 10819 10821 10825 10828 10833 10832 10837 10840 10844 10848 10853 10858 10865 10870 10877 10884 10890 10896 10901 10906 10912 10915 10917 10921 10924 10928 10929 10932 10935 10938 10940 10942 10945 10947
10788 10790 10794 10795 10797 10799 10802 10803 10807 10810 10814 10817 10820 10824 10824 10828 10831 10834 10836 10840 10843 10848 10854 10860 10866 10873 10880 10887 10893 10898 10903 10908 10911 10916 10920 10923 10925 10927 10931 10933 10934 10936 10938 10940
10778 10782 10785 10788 10790 10793 10793 10798 10800 10804 10807 10811 10813 10818 10819 10821 10824 10826 10829 10832 10835 10838 10842 10848 10855 10862 10870 10876 10883 10889 10894 10900 10904 10908 10913 10917 10920 10923 10927 10930 10932 10934 10936 10937
10766 10771 10776 10779 10783 10784 10789 10789 10793 10797 10800 10803 10805 10808 10811 10814 10816 10820 10822 10823 10827 10829 10832 10838 10843 10849 10857 10864 10871 10877 10884 10890 10895 10898 10904 10909 10913 10918 10921 10925 10929 10932 10935 10937
10753 10759 10765 10770 10776 10777 10778 10783 10787 10790 10791 10796 10796 10800 10802 10804 10808 10811 10809 10814 10817 10822 10825 10828 10832 10838 10844 10851 10859 10865 10871 10878 10884 10890 10896 10902 10906 10911 10915 10919 10922 10927 10929 10932
10743 10748 10754 10760 10765 10768 10771 10775 10779 10780 10787 10785 10789 10791 10793 10796 10798 10802 10800 10806 10808 10811 10815 10818 10822 10827 10831 10838 10845 10853 10860 10866 10873 10879 10885 10892 10897 10902 10907 10912 10915 10918 10921 10924
10733 10736 10744 10749 10755 10760 10763 10767 10770 10776 10777 10779 10780 10783 10785 10787 10790 10792 10793 10797 10799 10803 10805 10808 10811 10814 10818 10824 10831 10839 10846 10853 10860 10867 10874 10880 10885 10892 10898 10903 10907 10911 10913 10916
10721 10729 10733 10740 10744 10748 10755 10758 10762 10767 10769 10771 10773 10775 10776 10778 10782 10785 10787 10789 10792 10794 10796 10798 10800 10803 10807 10810 10816 10824 10831 10837 10845 10852 10860 10867 10873 10879 10885 10891 10896 10900 10904 10908
10710 10714 10723 10728 10734 10740 10744 10750 10753 10758 10761 10762 10764 10766 10768 10771 10773 10776 10779 10781 10784 10786 10787 10789 10791 10793 10795 10799 10803 10807 10814 10821 10829 10837 10844 10852 10859 10865 10871 10877 10883 10887 10893 10897
10698 10704 10711 10717 10723 10730 10735 10740 10746 10749 10751 10754 10756 10758 10761 10763 10766 10768 10771 10774 10777 10778 10780 10781 10781 10782 10784 10786 10790 10793 10798 10804 10812 10819 10828 10833 10840 10848 10855 10862 10868 10873 10878 10883
10689 10692 10696 10705 10711 10719 10726 10732 10736 10738 10742 10745 10748 10750 10752 10755 10758 10761 10764 10767 10770 10772 10772 10773 10774 10774 10774 10776 10777 10780 10784 10788 10793 10800 10807 10813 10821 10830 10837 10844 10851 10856 10862 10866